Regional Weather Roundup
Issued by NWS Goodland, KS

Home | Current Version | Previous Version | Text Only | Print | Product List | Glossary Off
Versions: 1 2 3 4 5 6 7 8 9 10 11 12 13 14 15 16 17 18 19 20 21 22 23 24 25 26 27 28 29 30 31 32 33 34 35 36 37 38 39 40 41 42 43 44 45 46 47 48 49 50

000
ASUS43 KGLD 221259
RWRGLD

GOODLAND FORECAST AREA HOURLY WEATHER ROUNDUP
NATIONAL WEATHER SERVICE GOODLAND KS
700 AM MDT SUN APR 22 2018

...OFFICIAL OBSERVATIONS...

CITY           SKY/WX    TMP DP  RH WIND       PRES   REMARKS
GOODLAND KS    FOG       33  33 100 CALM      30.21R VSB<1/4
HILL CITY KS   CLOUDY    42  40  92 NW8       30.23R FOG
IMPERIAL NEB   CLOUDY    39  39 100 S3        30.23R
MCCOOK NEB     FOG       39  38  96 NW6       30.24R VSB 1
AKRON CO       PTCLDY    30  30 100 SE6       30.19R
BURLINGTON CO  MOSUNNY   35  34  96 CALM      30.21R
LIMON CO       FOG       33  33 100 SE5       30.18R VSB 1/2
$$

...UNOFFICIAL OBSERVATIONS...

CITY           SKY/WX    TMP DP  RH WIND       PRES   REMARKS
NORTON KS      CLOUDY    39  37  93 NW5       30.23  FOG
KIT CARSON CO    N/A     34  31  88 CALM        N/A
YUMA CO        CLOUDY    32  32 100 S3        30.20S FOG
$$




USA.gov is the U.S. government's official web portal to all federal, state and local government web resources and services.